Location: Navalespino
(40.5894°N, 4.2660°W)
Time: 17:05:29
(UTC+00:00)

USA 229 DEB - Pass Details

Date: 18 April 2024
Orbit: 892 x 1319 km, 63.4° (Epoch: 18 May)

Event Time Altitude Azimuth Distance (km) Brightness Sun altitude
Rises 21:39:37 0° 229° (SW) 3,528 6.5 -26.8°
Reaches altitude 10° 21:42:07 10° 234° (SW) 2,620 5.8 -27.1°
Maximum altitude 21:48:03 53° 311° (NW) 1,191 4.2 -27.9°
Drops below altitude 10° 21:54:35 10° 27° (NNE) 2,870 6.2 -28.7°
Sets 21:57:26 0° 33° (NNE) 3,895 6.9 -29.0°
